Simultaneous Nadir Overpasses (SNOs) Predictions

Prediction of SNOs between FY3D and TERRA Satellite Orbit:

Table of predicted SNOs for the next 14.0 days since TLE Epoch: 12/14/2024
Index Date (FY3D) Time (FY3D) Lat,Lon (FY3D) SZA (FY3D ) Date (TERRA) Time (TERRA) Lat,Lon (TERRA) SZA (TERRA ) Distance(km) Time Diff (sec)
1 12/16/2024 03:37:57 -76.75, -54.30 79.99 12/16/2024 03:38:15 -76.74, -54.20 80.01 2.93 18
2 12/16/2024 04:28:42 76.70, 113.23 99.96 12/16/2024 04:27:36 76.68, 113.29 99.95 2.02 66
3 12/18/2024 13:59:44 76.83, -30.01 100.17 12/18/2024 14:00:56 76.79, -29.74 100.13 8.22 72
4 12/18/2024 14:50:25 -76.71, 137.81 79.96 12/18/2024 14:50:18 -76.71, 137.65 79.96 3.95 7
5 12/21/2024 01:12:11 76.76, 162.24 100.12 12/21/2024 01:12:58 76.77, 162.15 100.14 2.76 47
6 12/21/2024 02:02:54 -76.72, -30.30 79.92 12/21/2024 02:02:19 -76.74, -30.28 79.90 2.75 35
7 12/23/2024 12:24:40 76.78, -5.91 100.13 12/23/2024 12:24:59 76.76, -5.92 100.11 1.60 19
8 12/23/2024 13:15:23 -76.74, 161.57 79.92 12/23/2024 13:14:20 -76.74, 161.68 79.91 2.92 63
9 12/25/2024 22:46:26 -76.94, 18.05 79.78 12/25/2024 22:47:38 -76.85, 18.68 79.87 18.34 72
10 12/25/2024 23:37:08 76.77,-173.92 100.05 12/25/2024 23:36:59 76.77,-173.94 100.05 0.83 9



Historial Predications of SNOs between FY3D and TERRA
